User: anonymous   Login
Location: Unspecified
(0.0000°N, 0.0000°E)
Time: 16:26:40
(UTC+00:00)
Language:

SR - Orbit

View from above orbital plane
View from above orbital plane
View from above satellite
View from above satellite

Ground track
Ground track

The orbit data is extracted from the following two-line orbital elements,

1    46U 60007B   17262.93869035 -.00000014 +00000-0 +20426-4 0  9998
2    46 066.6894 232.2022 0208407 159.6568 201.3001 14.49067406993981
Epoch (UTC): 19 September 2017 22:31:42
Eccentricity: 0.0208407
inclination: 66.6894°
perigee height: 580 km
apogee height: 877 km
right ascension of ascending node: 232.2022°
argument of perigee: 159.6568°
revolutions per day: 14.49067406
mean anomaly at epoch: 201.3001°
orbit number at epoch: 99398

The dashed part of the orbit path shows where the satellite is in the earth's shadow,  

DLR